Weather History for Pensacola NAS, FL

Change the Weather History Date:

Monday, February 24, 2014

  Actual Average Record
Temperature  
Mean Temperature 64 °F -  
Max Temperature 73 °F 63 °F 73 °F (2012)
Min Temperature 55 °F 46 °F 36 °F (2009)
Degree Days  
Heating Degree Days 1    
Growing Degree Days 14 (Base 50)    
Moisture  
Dew Point 59 °F    
Average Humidity 91    
Maximum Humidity 100    
Minimum Humidity 53    
Precipitation  
Precipitation 0.00 in - - ()
Sea Level Pressure  
Sea Level Pressure 30.06 in    
Wind  
Wind Speed 4 mph (NNW)    
Max Wind Speed 14 mph    
Max Gust Speed -    
Visibility 5 miles    
Events Fog , Rain    
Averages and records for this station are not official NWS values.
T = Trace of Precipitation, MM = Missing Value Source: NWS Daily Summary

Daily Weather History Graph

Daily Weather History Graph

Search for Another Location

Airport:

Trip Planner

Search our weather history database for the weather conditions in past years. The results will help you decide how hot, cold, wet, or windy it might be!

Date:

Astronomy

Feb. 24, 2014 Rise Set
Actual Time 6:20 AM CST 5:44 PM CST
Civil Twilight 5:56 AM CST 6:08 PM CST
Nautical Twilight 5:28 AM CST 6:36 PM CST
Astronomical Twilight 5:00 AM CST 7:04 PM CST
Moon 2:06 AM CST (2/24) 12:57 PM CST (2/24)
Length of Visible Light 12h 12m
Length of Day
11h 23m
Waning Crescent, 28% of the Moon is Illuminated
Feb 24
Waning Crescent
Mar 1
New
Mar 8
First Quarter
Mar 16
Full
Mar 23
Last Quarter

Hourly Weather History & Observations

Time (CST) Temp. Dew Point Humidity Pressure Visibility Wind Dir Wind Speed Gust Speed Precip Events Conditions
12:11 AM 62.1 °F 62.1 °F 100% 30.01 in 7.0 mi Calm Calm - N/A   Overcast
12:21 AM 62.1 °F 62.1 °F 100% 30.01 in 6.0 mi NNW 3.5 mph - N/A   Overcast
12:40 AM 61.0 °F 61.0 °F 100% 30.00 in 1.8 mi Calm Calm - N/A   Overcast
12:53 AM 60.8 °F 60.8 °F 100% 30.00 in 0.8 mi Calm Calm - N/A   Mist
12:56 AM 61.0 °F 61.0 °F 100% 30.01 in 0.5 mi Calm Calm - N/A Fog Fog
1:48 AM 61.0 °F 61.0 °F 100% 30.00 in 0.2 mi NW 5.8 mph - N/A Fog Fog
1:56 AM 61.0 °F 61.0 °F 100% 30.01 in 0.2 mi NNW 5.8 mph - N/A Fog Fog
2:13 AM 61.0 °F 61.0 °F 100% 29.99 in 0.8 mi NNW 5.8 mph - N/A   Mist
2:42 AM 61.0 °F 61.0 °F 100% 30.00 in 0.2 mi NNW 4.6 mph - N/A Fog Fog
2:56 AM 61.0 °F 61.0 °F 100% 30.00 in 0.2 mi NNW 3.5 mph - N/A Fog Fog
3:56 AM 60.1 °F 60.1 °F 100% 30.01 in 0.2 mi NNW 3.5 mph - N/A Fog Fog
4:32 AM 60.1 °F 60.1 °F 100% 30.03 in 0.5 mi NNW 5.8 mph - N/A Fog Fog
4:56 AM 60.1 °F 60.1 °F 100% 30.04 in 0.5 mi North 3.5 mph - N/A Fog Fog
5:11 AM 60.1 °F 60.1 °F 100% 30.05 in 1.2 mi North 4.6 mph - N/A   Overcast
5:29 AM 60.1 °F 60.1 °F 100% 30.06 in 3.0 mi North 3.5 mph - N/A   Overcast
5:42 AM 60.1 °F 60.1 °F 100% 30.06 in 6.0 mi NNW 3.5 mph - N/A   Overcast
5:56 AM 60.1 °F 60.1 °F 100% 30.07 in 4.0 mi North 5.8 mph - N/A   Overcast
6:56 AM 61.0 °F 60.1 °F 97% 30.07 in 4.0 mi NNE 3.5 mph - N/A   Overcast
7:56 AM 61.0 °F 60.1 °F 97% 30.11 in 5.0 mi North 6.9 mph - N/A   Overcast
8:41 AM 61.0 °F 60.1 °F 97% 30.11 in 3.0 mi NNE 9.2 mph - N/A   Overcast
8:56 AM 61.0 °F 60.1 °F 97% 30.12 in 4.0 mi NNE 9.2 mph - N/A   Overcast
9:56 AM 64.0 °F 57.9 °F 80% 30.12 in 7.0 mi North 11.5 mph - N/A   Mostly Cloudy
10:23 AM 66.0 °F 57.9 °F 75% 30.11 in 10.0 mi NNE 13.8 mph - N/A   Mostly Cloudy
10:56 AM 68.0 °F 57.9 °F 70% 30.11 in 10.0 mi NNE 12.7 mph - N/A   Mostly Cloudy
11:56 AM 71.1 °F 57.0 °F 61% 30.09 in 10.0 mi North 8.1 mph - N/A   Mostly Cloudy
12:56 PM 73.9 °F 55.9 °F 53% 30.07 in 10.0 mi North 10.4 mph - N/A   Mostly Cloudy
1:56 PM 73.0 °F 57.0 °F 57% 30.04 in 10.0 mi Variable 6.9 mph - N/A   Mostly Cloudy
2:56 PM 70.0 °F 57.9 °F 65% 30.05 in 10.0 mi SSW 6.9 mph - N/A   Mostly Cloudy
3:56 PM 68.0 °F 57.9 °F 70% 30.06 in 10.0 mi SSW 8.1 mph - N/A   Overcast
4:56 PM 64.9 °F 59.0 °F 81% 30.07 in 10.0 mi SW 6.9 mph - N/A   Overcast
5:56 PM 63.0 °F 59.0 °F 87% 30.08 in 10.0 mi Calm Calm - N/A   Overcast
6:56 PM 63.0 °F 57.9 °F 84% 30.08 in 10.0 mi WSW 3.5 mph - N/A   Overcast
7:56 PM 61.0 °F 59.0 °F 93% 30.09 in 10.0 mi South 3.5 mph - N/A   Overcast
8:56 PM 61.0 °F 59.0 °F 93% 30.10 in 10.0 mi Calm Calm - N/A   Mostly Cloudy
9:56 PM 59.0 °F 57.9 °F 96% 30.09 in 9.0 mi Calm Calm - N/A   Mostly Cloudy
10:56 PM 55.9 °F 55.9 °F 100% 30.07 in 4.0 mi North 3.5 mph - N/A   Clear
11:56 PM 55.0 °F 54.0 °F 96% 30.07 in 6.0 mi Calm Calm - 0.00 in Rain Light Rain